Huvudsida
METAR-TAF:

METAR-TAF

Flygplatser :

Namsos flygplats. Høknesøra

Namsos, Norge

latitud: 64-28N, longitud: 011-35E, höjd: 0 m

Aktuellt väderrapport

Denna rapport gjordes för 27 minuter sedan, klockan 15:20 UTC
Vind 7 kt från väst/sydväst
Temperatur 16°C
Fuktighet 94%
Tryck 1003 hPa
Sikt 10 km eller mer
Få moln på en höjd av 600 ft
Spridda moln på en höjd av 2600 ft
Brutna moln på en höjd av 3000 ft
lätta regnskurar

METAR: ENNM 161520Z 24007KT 9999 -SHRA FEW006 SCT026 BKN030 16/15 Q1003

Tid: 17:47 (15:47 UTC)


TAF: saknas

Aktuella väderrapporter och prognoser från 4000 flygplatser (METAR- och TAF-rapporter).

De tillgängliga stationerna syns som gula och röda prickar på kartan.

För musen över prickarna för att se namnen på stationerna.

Klicka sedan för att få väderrapporter och prognoser.

För att ändra kartan: Klicka på de gröna knapparna med ett svart kors på för att zooma in; den gröna knappen med ett streck på för att zooma ut; eller på de gröna pilarna för angränsande kartor.


METAR-TAF: